Back to catalog

STARLINK-4431

AliveCommunicationsSSO
NORAD 53486·PAYLOAD·🇺🇸 United States

Launched Aug 12, 2022 from Vandenberg Space Force Base

Loading…

Next Passes (next 24 hours)

TLE

FreshSource: CelesTrak SupGP

Epoch: Sep 15, 2026, 01:38 UTC

1 53486C 22099X   26258.06854167 -.00039488  00000+0 -10960-2 0  2587
2 53486  97.5051  25.7981 0000605  84.5425 135.4716 15.36980486    14

Track STARLINK-4431 in real time with AllMySat

Download on the App Store